アトラス彗星

C/2019 Y1 ( ATLAS )

English version
Home page
Updated on February 8, 2021

---------------------------------------------------------------------

・ プロフィール

発見日 2019年12月16日
発見光度 17.9等
発見者 Asteroid Terrestrial-Impact Last Alert System (ATLAS) search program

・ 写真集

・ 軌道要素

Epoch 2020 Mar. 12.0 TT = JDT 2458920.5
T 2020 Mar. 15.56242 TT                                 Rudenko
q   0.8378174            (2000.0)            P               Q
z  +0.0042471      Peri.   57.49742     +0.33301896     -0.80026124
 +/-0.0000022      Node    31.36623     +0.12452873     -0.48690695
e   0.9964417      Incl.   73.34825     +0.93466088     +0.35000510
From 924 observations 2019 Dec. 16-2020 July 11, mean residual 1".2.

・ 星図

・ 光度変化

        m1 = 8.5 + 5 logΔ + 25.0 log r(t - 10)  [  ,10]  (              〜2020年 3月25日)
        m1 = 8.0 + 5 logΔ + 17.5 log r(t - 10)  [10,  ]  (2020年 3月25日〜              )

---------------------------------------------------------------------

軌道要素はM.P.E.C. 2020-S188に掲載されたものです。
星図はステラナビゲータ Ver.10 (アストロアーツ) で作成したものです。
光度グラフはComet for Windowsで作成したものです。

---------------------------------------------------------------------

Copyright(C) Seiichi Yoshida (comet@aerith.net). All rights reserved.